Find STARLINK-37438

NORAD ID: 799500965 Int'l Des: 2026-132U Constellation: starlink operational

Aktuelle Ansicht

3D-Globus wird geladen...

About STARLINK-37438

STARLINK-37438 (NORAD 799500965) is a starlink constellation satellite launched Jun 8, 2026

Über STARLINK-37438

Beschreibung wird geladen...

Nächste Überflüge

Passes for default location (London). Set your location on the main map for personalized predictions.

Höhenverlauf

Loading altitude history...

Zweizeiliger Elementsatz

1 99999C 2026132U 26163.60881943 .00759720 00000-0 872030-4 0 1635
2 99999 53.1637 346.9076 0008475 278.7384 220.5645 16.07817211 19
Epoch: 12. Juni 2026 • Age: 9 hours